Flag for Pakistan Weather past 2 weeks in Lahore, Pakistan

Now
55 °F

Passing clouds.


Feels Like: 54 °F
Forecast: 49 / 68 °F
Wind: 7 mph from Northwest

Location: Lahore Airport

Current Time: Jan 31, 2015 at 10:44:30 AM

Latest Report: Jan 31, 2015 at 9:55 AM


Visibility: 2 mi

Pressure: 30.12 "Hg

Humidity: 51%

Dew point: 37 °F

Location of LahoreLocation

Historic Weather in Lahore — Graph

°F

Lahore temperature yesterday

Maximum temperature yesterday: 68 °F (at 3:55 PM)
Minimum temperature yesterday: 43 °F (at 4:00 AM)
Average temperature yesterday: 54 °F

Past Weeks' High & Low Weather Summary

 TemperatureHumidityPressure
High70 °F (Jan 16, 2:30 PM)100% (Jan 20, 7:55 AM)30.24 "Hg (Jan 20, 7:55 AM)
Low41 °F (Jan 27, 6:25 AM)20% (Jan 30, 3:55 PM)30.01 "Hg (Jan 28, 3:00 PM)
Average54 °F71%30.12 "Hg
* Reported Jan 16 9:25 AM — Jan 31 9:25 AM, Lahore, Weather by CustomWeather, © 2014

Note: Actual official high and low records may vary slightly from our data, if they occured in-between our weather recording intervals... More about our weather records

Advertising

Lahore weather history for previous 24 hours

 ConditionsComfort  
Time TempWeatherWind HumidityBarometerVisibility
9:25 AM
Jan 31
52 °FPassing clouds.5 mph58%30.12 "Hg2 mi
8:55 AM50 °FPassing clouds.3 mph62%30.09 "Hg2 mi
7:55 AM45 °FPassing clouds.3 mph76%30.09 "Hg2 mi
6:25 AM41 °FClear.No wind87%30.07 "Hg2 mi
5:55 AM41 °FClear.3 mph87%30.07 "Hg2 mi
5:00 AM43 °FClear.3 mph87%30.07 "Hg2 mi
3:25 AM46 °FClear.3 mph82%30.09 "Hg2 mi
2:55 AM46 °FClear.No wind82%30.09 "Hg2 mi
2:25 AM48 °FClear.3 mph76%30.09 "Hg2 mi
1:55 AM48 °FClear.3 mph76%30.09 "Hg2 mi
1:25 AM50 °FClear.3 mph67%30.09 "Hg2 mi
12:55 AM50 °FClear.5 mph67%30.12 "Hg2 mi
12:25 AM52 °FClear.5 mph62%30.12 "Hg2 mi
11:55 PM
Jan 30
52 °FClear.3 mph62%30.12 "Hg2 mi
11:25 PM54 °FClear.No wind63%30.12 "Hg2 mi
10:55 PM54 °FClear.No wind63%30.15 "Hg2 mi
10:25 PM55 °FClear.3 mph63%30.15 "Hg2 mi
9:55 PM55 °FClear.3 mph63%30.15 "Hg2 mi
8:55 PM57 °FHaze.6 mph48%30.12 "Hg2 mi
8:25 PM57 °FHaze.5 mph48%30.12 "Hg2 mi
7:25 PM59 °FHaze.No wind42%30.12 "Hg3 mi
6:55 PM61 °FHaze.No wind39%30.12 "Hg3 mi
6:25 PM61 °FHaze.No wind36%30.12 "Hg3 mi
5:55 PM63 °FPassing clouds.3 mph34%30.09 "Hg4 mi
5:25 PM64 °FClear.5 mph26%30.12 "Hg4 mi
4:55 PM66 °FClear.8 mph24%30.12 "Hg4 mi
3:55 PM68 °FClear.10 mph20%30.12 "Hg4 mi
2:55 PM66 °FClear.13 mph22%30.12 "Hg4 mi
2:25 PM66 °FClear.13 mph24%30.15 "Hg4 mi
1:55 PM66 °FClear.12 mph24%30.15 "Hg4 mi
1:25 PM64 °FClear.12 mph24%30.15 "Hg4 mi
12:55 PM64 °FClear.10 mph24%30.18 "Hg4 mi
12:25 PM64 °FClear.12 mph24%30.18 "Hg4 mi
11:55 AM63 °FClear.12 mph27%30.21 "Hg4 mi
10:52 AM59 °FClear.9 mph34%30.21 "Hg4 mi
10:25 AM57 °FHaze.8 mph41%30.21 "Hg3 mi
Weather by CustomWeather, © 2014

See weather overviewHow to use our weather pages